GW3916 Weather Reports


time (UTC)temp
C
wind
direction
speed
KPH
gust
KPH
rain 1hr
cm
rain 24hr
cm
rain mn
cm
humidity
%
barometer
mb
20260504002824 25 295 4.8 8.0 0.00 0.00 0.00 40 1011.7
20260504002318 25 307 3.2 9.7 0.00 0.00 0.00 40 1011.7
20260504001810 25 279 1.6 8.0 0.00 0.00 0.00 42 1011.8
20260504001307 25 352 4.8 8.0 0.00 0.00 0.00 39 1011.8
20260504000805 25 347 1.6 11.3 0.00 0.00 0.00 40 1011.8
20260504000327 25 281 3.2 11.3 0.00 0.00 0.00 41 1012.0
20260503235825 25 314 3.2 8.0 0.00 0.00 0.00 41 1012.0
20260503235323 25 295 3.2 8.0 0.00 0.00 0.00 41 1012.0
20260503234809 25 338 3.2 8.0 0.00 0.00 0.00 39 1012.1
20260503234348 25 302 3.2 8.0 0.00 0.00 0.00 42 1012.1
20260503233817 25 292 3.2 8.0 0.00 0.00 0.00 42 1012.1
20260503233316 25 327 4.8 8.0 0.00 0.00 0.00 43 1012.1
20260503232833 25 308 4.8 8.0 0.00 0.00 0.00 41 1012.1
20260503232328 25 327 1.6 6.4 0.00 0.00 0.00 43 1012.1
20260503231819 25 305 1.6 6.4 0.00 0.00 0.00 40 1012.4
20260503231315 25 281 0.0 4.8 0.00 0.00 0.00 40 1012.4
20260503230826 25 336 3.2 6.4 0.00 0.00 0.00 41 1012.4
20260503230319 25 304 3.2 6.4 0.00 0.00 0.00 41 1012.6
20260503225827 25 334 1.6 6.4 0.00 0.00 0.00 42 1012.6
20260503225342 25 288 0.0 6.4 0.00 0.00 0.00 45 1012.6
20260503224815 24 335 3.2 4.8 0.00 0.00 0.00 44 1012.7
20260503224307 24 312 1.6 4.8 0.00 0.00 0.00 44 1012.7
20260503223804 24 48 3.2 6.4 0.00 0.00 0.00 44 1012.7
20260503223327 24 301 4.8 6.4 0.00 0.00 0.00 44 1013.0
20260503222819 24 288 0.0 3.2 0.00 0.00 0.00 45 1013.0
20260503222331 23 279 1.6 6.4 0.00 0.00 0.00 45 1013.0
20260503221823 23 312 3.2 6.4 0.00 0.00 0.00 44 1013.2
20260503221333 23 293 3.2 8.0 0.00 0.00 0.00 47 1013.2
20260503220826 23 299 1.6 8.0 0.00 0.00 0.00 47 1013.2
20260503220331 23 328 1.6 8.0 0.00 0.00 0.00 47 1013.3
20260503215824 23 299 3.2 6.4 0.00 0.00 0.00 45 1013.3
20260503215316 23 320 1.6 11.3 0.00 0.00 0.00 47 1013.3
20260503214852 23 307 1.6 11.3 0.00 0.00 0.00 46 1013.6
20260503214327 23 289 1.6 8.0 0.00 0.00 0.00 50 1013.6
20260503213811 23 274 3.2 11.3 0.00 0.00 0.00 49 1013.6
20260503213308 23 305 6.4 11.3 0.00 0.00 0.00 50 1013.6
20260503212851 23 296 4.8 14.5 0.00 0.00 0.00 49 1013.6
20260503212319 23 316 4.8 14.5 0.00 0.00 0.00 50 1013.6
20260503211847 23 299 4.8 11.3 0.00 0.00 0.00 51 1013.6
20260503211306 23 304 4.8 9.7 0.00 0.00 0.00 47 1013.6
20260503210832 23 322 4.8 9.7 0.00 0.00 0.00 50 1013.6
20260503210326 23 319 6.4 9.7 0.00 0.00 0.00 49 1013.7
20260503205823 23 307 6.4 9.7 0.00 0.00 0.00 50 1013.7
20260503205313 23 32 3.2 9.7 0.00 0.00 0.00 48 1013.7
20260503204806 23 299 4.8 11.3 0.00 0.00 0.00 50 1013.7
20260503204329 23 295 4.8 11.3 0.00 0.00 0.00 50 1013.7
20260503203822 23 313 4.8 9.7 0.00 0.00 0.00 51 1013.7
20260503203338 23 325 4.8 9.7 0.00 0.00 0.00 50 1013.7
20260503202819 23 329 4.8 9.7 0.00 0.00 0.00 47 1013.7
20260503202329 23 1 3.2 8.0 0.00 0.00 0.00 49 1013.7
20260503201826 23 273 1.6 4.8 0.00 0.00 0.00 47 1013.8
20260503201324 23 281 1.6 6.4 0.00 0.00 0.00 50 1013.8
20260503200825 23 297 1.6 8.0 0.00 0.00 0.00 51 1013.8
20260503200327 23 299 1.6 9.7 0.00 0.00 0.00 49 1014.1
20260503195825 23 293 3.2 9.7 0.00 0.00 0.00 49 1014.1
20260503195317 23 304 1.6 8.0 0.00 0.00 0.00 50 1014.1
20260503194806 23 340 1.6 8.0 0.00 0.00 0.00 50 1014.3
20260503194331 23 297 3.2 8.0 0.00 0.00 0.00 53 1014.3
20260503193805 23 312 3.2 8.0 0.00 0.00 0.00 51 1014.3
20260503193328 23 42 1.6 8.0 0.00 0.00 0.00 49 1014.4
20260503192806 23 302 1.6 8.0 0.00 0.00 0.00 50 1014.4
20260503192347 22 314 1.6 4.8 0.00 0.00 0.00 49 1014.4
20260503191823 22 336 1.6 6.4 0.00 0.00 0.00 50 1014.5
20260503191329 22 288 1.6 6.4 0.00 0.00 0.00 53 1014.5
20260503190816 22 66 1.6 8.0 0.00 0.00 0.00 50 1014.5
20260503190332 22 301 4.8 8.0 0.00 0.00 0.00 52 1014.7
20260503185804 22 322 1.6 8.0 0.00 0.00 0.00 52 1014.7
20260503185329 22 264 4.8 8.0 0.00 0.00 0.00 52 1014.7
20260503184818 21 343 1.6 6.4 0.00 0.00 0.00 53 1014.8
20260503184319 21 321 3.2 9.7 0.00 0.00 0.00 50 1014.8
20260503183803 21 347 4.8 9.7 0.00 0.00 0.00 51 1014.8
20260503183309 21 344 1.6 11.3 0.00 0.00 0.00 53 1014.9
20260503182826 21 312 4.8 11.3 0.00 0.00 0.00 53 1014.9
20260503182326 21 351 1.6 11.3 0.00 0.00 0.00 52 1014.9
20260503181807 21 286 4.8 9.7 0.00 0.00 0.00 52 1015.1
20260503181321 21 330 4.8 9.7 0.00 0.00 0.00 52 1015.1
20260503180830 21 291 3.2 9.7 0.00 0.00 0.00 54 1015.1
20260503180322 21 297 4.8 9.7 0.00 0.00 0.00 53 1015.2
20260503175825 21 19 4.8 9.7 0.00 0.00 0.00 53 1015.2
20260503175317 21 35 3.2 11.3 0.00 0.00 0.00 55 1015.2
20260503174831 21 322 8.0 12.9 0.00 0.00 0.00 55 1015.2
20260503174326 21 296 6.4 12.9 0.00 0.00 0.00 55 1015.2
20260503173824 21 325 4.8 11.3 0.00 0.00 0.00 54 1015.2
20260503173304 21 268 4.8 11.3 0.00 0.00 0.00 53 1015.2
20260503172809 21 306 4.8 11.3 0.00 0.00 0.00 54 1015.2
20260503172326 20 302 6.4 12.9 0.00 0.00 0.00 56 1015.2
20260503171813 20 322 4.8 12.9 0.00 0.00 0.00 56 1015.3
20260503171326 20 312 3.2 9.7 0.00 0.00 0.00 59 1015.3
20260503170836 20 50 3.2 9.7 0.00 0.00 0.00 57 1015.3
20260503170327 20 326 6.4 9.7 0.00 0.00 0.00 57 1015.3
20260503150818 18 240 1.6 9.7 0.00 0.00 0.00 59 1015.9
20260503150318 18 300 3.2 16.1 0.00 0.00 0.00 60 1015.9
20260503131330 16 269 3.2 8.0 0.00 0.00 0.00 60 1015.4
20260503130845 15 233 4.8 8.0 0.00 0.00 0.00 63 1015.4
20260503130321 13 215 4.8 6.4 0.00 0.00 0.00 68 1015.3
20260503110810 14 190 4.8 6.4 0.00 0.00 0.00 65 1015.4
20260503110306 15 151 1.6 6.4 0.00 0.00 0.00 66 1015.5
20260503090317 15 146 1.6 8.0 0.00 0.00 0.00 64 1015.4
20260503081326 16 150 0.0 6.4 0.00 0.00 0.00 61 1015.3
20260503080819 16 123 3.2 8.0 0.00 0.00 0.00 62 1015.3
20260503080331 15 206 6.4 8.0 0.00 0.00 0.00 64 1015.3
20260503072821 15 193 3.2 4.8 0.00 0.00 0.00 66 1015.3
20260503072329 15 149 0.0 6.4 0.00 0.00 0.00 62 1015.3
20260503071803 15 188 4.8 6.4 0.00 0.00 0.00 66 1015.3
20260503071323 15 189 3.2 6.4 0.00 0.00 0.00 65 1015.3
20260503070803 15 199 4.8 6.4 0.00 0.00 0.00 65 1015.3
20260503070320 15 168 1.6 6.4 0.00 0.00 0.00 67 1015.2
20260503060330 15 181 3.2 8.0 0.00 0.00 0.00 65 1015.3
20260503054817 15 206 4.8 8.0 0.00 0.00 0.00 64 1015.3
20260503054313 15 194 6.4 8.0 0.00 0.00 0.00 66 1015.3
20260503053827 15 168 1.6 8.0 0.00 0.00 0.00 68 1015.3
20260503053343 15 185 4.8 8.0 0.00 0.00 0.00 66 1015.3
20260503052816 15 192 4.8 8.0 0.00 0.00 0.00 64 1015.3
20260503052320 15 183 1.6 4.8 0.00 0.00 0.00 60 1015.3
20260503051828 15 89 0.0 8.0 0.00 0.00 0.00 67 1015.3
20260503051326 15 195 8.0 8.0 0.00 0.00 0.00 65 1015.3
20260503050812 15 193 6.4 8.0 0.00 0.00 0.00 63 1015.3
20260503050329 15 308 1.6 9.7 0.00 0.00 0.00 65 1015.3
20260503045844 15 179 6.4 9.7 0.00 0.00 0.00 68 1015.3
20260503045317 15 191 3.2 8.0 0.00 0.00 0.00 69 1015.3
20260503044826 15 185 6.4 8.0 0.00 0.00 0.00 68 1015.3
20260503044320 15 192 6.4 9.7 0.00 0.00 0.00 68 1015.3
20260503043814 15 192 8.0 9.7 0.00 0.00 0.00 67 1015.3
20260503043308 15 185 3.2 9.7 0.00 0.00 0.00 66 1015.2
20260503042828 16 193 8.0 9.7 0.00 0.00 0.00 64 1015.2
20260503042305 16 192 8.0 9.7 0.00 0.00 0.00 61 1015.2
20260503041829 16 192 8.0 9.7 0.00 0.00 0.00 62 1015.1
20260503041305 16 186 6.4 9.7 0.00 0.00 0.00 61 1015.1
20260503040821 16 191 6.4 8.0 0.00 0.00 0.00 61 1015.1
20260503040306 16 183 4.8 8.0 0.00 0.00 0.00 61 1014.8
20260503035802 16 181 6.4 8.0 0.00 0.00 0.00 63 1014.8
20260503035326 16 193 6.4 8.0 0.00 0.00 0.00 62 1014.8
20260503034819 16 188 6.4 8.0 0.00 0.00 0.00 62 1014.8
20260503034310 16 198 6.4 9.7 0.00 0.00 0.00 61 1014.8
20260503033810 16 168 6.4 8.0 0.00 0.00 0.00 64 1014.8
20260503033330 16 195 6.4 8.0 0.00 0.00 0.00 64 1014.7
20260503032826 16 195 6.4 8.0 0.00 0.00 0.00 64 1014.7
20260503032304 16 193 6.4 8.0 0.00 0.00 0.00 57 1014.7
20260503031822 17 194 6.4 8.0 0.00 0.00 0.00 59 1014.7
20260503031315 17 197 4.8 8.0 0.00 0.00 0.00 56 1014.7
20260503030825 17 206 4.8 8.0 0.00 0.00 0.00 56 1014.7
20260503030323 17 197 3.2 6.4 0.00 0.00 0.00 56 1014.6
20260503025833 18 197 3.2 6.4 0.00 0.00 0.00 59 1014.6
20260503025324 18 198 3.2 6.4 0.00 0.00 0.00 55 1014.6
20260503024824 18 224 3.2 4.8 0.00 0.00 0.00 56 1014.6
20260503024348 19 213 1.6 3.2 0.00 0.00 0.00 54 1014.6
20260503023830 20 203 1.6 3.2 0.00 0.00 0.00 52 1014.6
20260503023316 20 197 1.6 3.2 0.00 0.00 0.00 53 1014.7
20260503022813 20 220 0.0 3.2 0.00 0.00 0.00 54 1014.7
20260503022326 20 270 1.6 3.2 0.00 0.00 0.00 52 1014.7
20260503021815 21 270 1.6 1.6 0.00 0.00 0.00 53 1014.8
20260503021308 21 270 1.6 3.2 0.00 0.00 0.00 50 1014.8
20260503020808 22 270 1.6 3.2 0.00 0.00 0.00 49 1014.8
20260503020329 22 270 0.0 3.2 0.00 0.00 0.00 49 1014.8
20260503015805 23 270 0.0 3.2 0.00 0.00 0.00 48 1014.8
20260503015328 22 270 0.0 3.2 0.00 0.00 0.00 45 1014.8
20260503014820 22 301 0.0 3.2 0.00 0.00 0.00 44 1015.0
20260503014330 22 303 1.6 3.2 0.00 0.00 0.00 42 1015.0
20260503013826 22 274 0.0 6.4 0.00 0.00 0.00 44 1015.0
20260503013321 22 288 3.2 6.4 0.00 0.00 0.00 42 1015.1
20260503012823 22 293 3.2 8.0 0.00 0.00 0.00 44 1015.1
20260503012321 22 333 4.8 8.0 0.00 0.00 0.00 44 1015.1
20260503011801 22 305 1.6 6.4 0.00 0.00 0.00 42 1015.1
20260503011301 22 303 1.6 8.0 0.00 0.00 0.00 48 1015.1
20260503010807 22 341 1.6 8.0 0.00 0.00 0.00 48 1015.1
20260503010352 22 236 3.2 8.0 0.00 0.00 0.00 47 1015.1
20260503005812 22 284 3.2 9.7 0.00 0.00 0.00 46 1015.1
20260503005329 23 309 1.6 9.7 0.00 0.00 0.00 46 1015.1
20260503004825 23 296 1.6 8.0 0.00 0.00 0.00 47 1015.0
20260503004338 23 41 1.6 8.0 0.00 0.00 0.00 45 1015.0
20260503003807 23 300 0.0 8.0 0.00 0.00 0.00 47 1015.0
20260503003345 22 317 1.6 8.0 0.00 0.00 0.00 44 1015.1